Regional Weather Roundup
Issued by NWS

Home | Current Version | Previous Version | Text Only | Print | Product List | Glossary Off
Versions: 1 2 3 4 5 6 7 8 9 10 11 12 13 14 15 16 17 18 19 20 21 22 23 24 25 26 27 28 29 30 31 32 33 34 35 36 37 38 39 40 41 42 43 44 45 46 47 48 49 50

000
ASUS43 KLMK 180310
RWRKY
KENTUCKY REGIONAL WEATHER ROUNDUP
NATIONAL WEATHER SERVICE LOUISVILLE KY
1000 PM EST WED DEC 17 2014

NOTE "FAIR" INDICATES FEW OR NO CLOUDS BELOW 12,000 FEET
WITH NO SIGNIFICANT WEATHER AND/OR OBSTRUCTIONS TO VISIBILITY.

KYZ001>023-026-027-061>063-070>075-180400-
WESTERN AND SOUTH CENTRAL KENTUCKY

CITY           SKY/WX    TMP DP  RH WIND       PRES   REMARKS
PADUCAH        CLOUDY    34  29  82 NE6       30.26F WCI  29
HENDERSON      PTCLDY    30  25  80 NE7       30.28F WCI  23
OWENSBORO      CLEAR     31  26  81 NE7       30.29F WCI  24
HOPKINSVILLE   CLEAR     29  25  84 NE5       30.27F WCI  24
BOWLING GREEN  PTCLDY    31  24  75 N3        30.28F
GLASGOW        CLEAR     28  25  86 N3        30.27S
$$

KYZ024-025-028>034-038-045-046-053-180400-
NORTH CENTRAL KENTUCKY

CITY           SKY/WX    TMP DP  RH WIND       PRES   REMARKS
LOUISVILLE/SDF CLOUDY    31  23  72 N9        30.28S WCI  23
LOUISVILLE/LOU CLOUDY    31  23  72 N7        30.29S WCI  24
FORT KNOX      CLOUDY    29  25  82 NW5       30.26S WCI  24
$$

KYZ035>037-039>044-047>052-055>060-089>105-180400-
NORTHEAST KENTUCKY

CITY           SKY/WX    TMP DP  RH WIND       PRES   REMARKS
LEXINGTON      MOCLDY    27  24  89 NW5       30.25S WCI  22
COVINGTON      CLOUDY    28  20  71 NW10      30.26R WCI  19
FRANKFORT      CLOUDY    30  23  75 NW7       30.25S WCI  23
$$

KYZ054-064>069-076>088-106>120-180400-
SOUTHEAST KENTUCKY

CITY           SKY/WX    TMP DP  RH WIND       PRES   REMARKS
JACKSON        CLEAR     29  24  82 CALM      30.22R
LONDON         CLEAR     29  25  85 CALM      30.23S
SOMERSET       PTCLDY    28  27  93 CALM      30.26S
MIDDLESBORO    CLEAR     31  29  94 CALM      30.23F
MONTICELLO     FAIR      24  22  92 CALM      30.28R
$$




USA.gov is the U.S. government's official web portal to all federal, state and local government web resources and services.